This demonstration page uses our WeatherBlox Daily Observations layout. Learn more.

Left ArrowRight Arrow

Hourly Observations for June 23, 2019

Temp ( °F °C ) Dew Point ( °F °C ) Humidity (%) Winds ( mph kmh ) Pressure ( in mb ) Visibility ( mi km ) Precip ( " mm )
6:30 am 06:30 Partly Cloudy 64 18 59 15 83 83 SE 7 11 30.01 1016 10 16 N/A
6:45 am 06:45 Partly Cloudy 64 18 59 15 83 83 SSE 6 9 30.02 1017 10 16 N/A
7:45 am 07:45 Partly Cloudy 64 18 59 15 83 83 SSE 6 9 30.04 1017 10 16 N/A
8:52 am 08:52 Cloudy 66 19 59 15 78 78 ESE 14 22 29.97 1015 10 16 N/A
9:58 am 09:58 Cloudy 68 20 63 17 83 83 SSE 9 15 29.98 1015 10 16 N/A
10:53 am 10:53 Cloudy 70 21 64 18 83 83 S 9 15 29.97 1015 10 16 N/A
11:58 am 11:58 Mostly Cloudy 75 24 66 19 74 74 SSE 10 17 29.97 1015 10 16 N/A
12:50 pm 12:50 Partly Cloudy 77 25 68 20 74 74 S 10 17 29.94 1014 10 16 N/A
1:45 pm 13:45 Partly Cloudy 81 27 70 21 70 70 SSE 9 15 29.94 1014 10 16 N/A
2:54 pm 14:54 Mostly Cloudy 81 27 72 22 74 74 SSW 8 13 29.92 1013 10 16 N/A
3:40 pm 15:40 Cloudy with Light Rain 82 28 70 21 66 66 WSW 32 52 29.93 1013 7 11 N/A
3:47 pm 15:47 Cloudy with Light Rain 77 25 66 19 69 69 WSW 29 46 29.92 1013 4 6 N/A
3:52 pm 15:52 Cloudy with Thunderstorms 70 21 64 18 83 83 W 12 19 29.92 1013 2 3 N/A
3:58 pm 15:58 Cloudy with Nearby Thunderstorms 68 20 66 19 94 94 NW 6 9 29.91 1013 7 11 N/A
4:29 pm 16:29 Cloudy 70 21 66 19 88 88 SSE 12 19 29.92 1013 10 16 N/A
4:48 pm 16:48 Cloudy 70 21 66 19 88 88 SSE 6 9 29.92 1013 10 16 N/A
5:45 pm 17:45 Cloudy 72 22 66 19 83 83 SE 8 13 29.88 1012 10 16 N/A
6:47 pm 18:47 Mostly Cloudy 68 20 66 19 94 94 SSE 7 11 29.85 1011 10 16 N/A
7:45 pm 19:45 Mostly Cloudy 70 21 66 19 88 88 SE 12 19 29.80 1009 10 16 N/A
8:53 pm 20:53 Mostly Cloudy 68 20 64 18 88 88 SE 9 15 29.79 1009 10 16 N/A
9:51 pm 21:51 Mostly Cloudy 68 20 64 18 88 88 ESE 6 9 29.78 1009 10 16 N/A

Powered by AerisWeather